Simultaneous Nadir Overpasses (SNOs) Predictions

Prediction of SNOs between FY3D and METOP-A Satellite Orbit:

Table of predicted SNOs for the next 14.0 days since TLE Epoch: 11/14/2020
Index Date (FY3D) Time (FY3D) Lat,Lon (FY3D) SZA (FY3D ) Date (METOP-A) Time (METOP-A) Lat,Lon (METOP-A) SZA (METOP-A ) Distance(km) Time Diff (sec)
1 11/28/2020 04:50:30 -76.82, -90.32 81.48 11/28/2020 04:51:36 -76.79, -86.92 81.68 86.35 66
2 11/28/2020 05:41:11 76.67, 77.58 98.36 11/28/2020 05:42:20 76.61, 79.73 98.18 55.71 69
3 11/28/2020 06:31:53 -76.55,-114.66 81.78 11/28/2020 06:33:04 -76.50,-113.33 81.91 34.84 71
4 11/28/2020 07:22:34 76.40, 53.23 98.06 11/28/2020 07:23:47 76.36, 53.51 97.99 8.43 73
5 11/28/2020 08:13:17 -76.33,-139.19 82.03 11/28/2020 08:14:29 -76.35,-139.22 82.02 2.34 72
6 11/28/2020 09:04:02 76.35, 28.03 98.01 11/28/2020 09:05:09 76.34, 28.10 97.99 2.26 67
7 11/28/2020 09:54:46 -76.33,-164.56 82.02 11/28/2020 09:55:51 -76.33,-164.63 82.02 1.73 65
8 11/28/2020 10:45:31 76.35, 2.66 98.03 11/28/2020 10:46:31 76.33, 2.70 97.98 3.21 60
9 11/28/2020 11:36:15 -76.33, 170.07 82.01 11/28/2020 11:37:13 -76.31, 169.97 82.03 3.28 58
10 11/28/2020 12:27:00 76.35, -22.71 98.04 11/28/2020 12:27:52 76.35, -22.55 98.02 4.07 52
11 11/28/2020 13:17:44 -76.32, 144.71 81.99 11/28/2020 13:18:34 -76.34, 144.72 81.99 1.40 50
12 11/28/2020 14:08:28 76.31, -47.91 98.00 11/28/2020 14:09:14 76.33, -47.96 98.02 3.33 46
13 11/28/2020 14:59:13 -76.32, 119.34 81.98 11/28/2020 14:59:56 -76.32, 119.31 82.00 0.95 43
14 11/28/2020 15:49:57 76.30, -73.28 98.01 11/28/2020 15:50:36 76.31, -73.37 98.01 2.59 39
15 11/28/2020 16:40:42 -76.32, 93.97 81.97 11/28/2020 16:41:18 -76.30, 93.91 82.00 3.17 36
16 11/28/2020 17:31:26 76.30, -98.64 98.02 11/28/2020 17:31:58 76.29, -98.77 98.01 3.57 32
17 11/28/2020 18:22:11 -76.32, 68.60 81.96 11/28/2020 18:22:39 -76.33, 68.66 81.97 1.45 28
18 11/28/2020 19:12:55 76.30,-124.01 98.03 11/28/2020 19:13:19 76.32,-124.02 98.04 2.16 24
19 11/28/2020 20:03:40 -76.32, 43.24 81.95 11/28/2020 20:04:01 -76.31, 43.25 81.97 1.58 21
20 11/28/2020 20:54:24 76.30,-149.38 98.04 11/28/2020 20:54:41 76.30,-149.43 98.04 1.37 17
